• In Deutschland
  • Länderverzeichnis
  • Für 7 Tage
  • Wassertemperatur
  • Satellitenkarten
  • Wetterkarte
  • Widgets
  • user-avatar
    Anmelden

    Stündliche Wetter Sumgayit

    Heute, 26 Juli, Mittwoch

    Zeit Temperatur Niederschläge Wind Luftdruck Luftfeuchtigkeit
    00:00 +28°C° 0 mm 6 m/S 733 mmHg 53%
    01:00 +28°C° 0 mm 6 m/S 733 mmHg 53%
    02:00 +27°C° 0 mm 6 m/S 733 mmHg 52%
    03:00 +27°C° 0 mm 6 m/S 733 mmHg 52%
    04:00 +27°C° 0 mm 6 m/S 733 mmHg 52%
    05:00 +27°C° 0 mm 6 m/S 733 mmHg 52%
    06:00 +27°C° 0 mm 6 m/S 733 mmHg 52%
    07:00 +29°C° 0 mm 6 m/S 734 mmHg 48%
    08:00 +30°C° 0 mm 5 m/S 734 mmHg 44%
    09:00 +32°C° 0 mm 5 m/S 734 mmHg 40%
    10:00 +33°C° 0 mm 6 m/S 734 mmHg 38%
    11:00 +34°C° 0 mm 6 m/S 734 mmHg 36%
    12:00 +34°C° 0 mm 6 m/S 734 mmHg 34%
    13:00 +35°C° 0 mm 7 m/S 734 mmHg 35%
    14:00 +35°C° 0 mm 7 m/S 734 mmHg 35%
    15:00 +35°C° 0 mm 8 m/S 733 mmHg 35%
    16:00 +34°C° 0 mm 8 m/S 734 mmHg 36%
    17:00 +34°C° 0 mm 8 m/S 734 mmHg 38%
    18:00 +33°C° 0 mm 8 m/S 734 mmHg 39%
    19:00 +32°C° 0 mm 8 m/S 734 mmHg 41%
    20:00 +30°C° 0 mm 7 m/S 734 mmHg 44%
    21:00 +30°C° 0 mm 7 m/S 734 mmHg 46%
    22:00 +29°C° 0 mm 6 m/S 734 mmHg 47%
    23:00 +29°C° 0 mm 6 m/S 735 mmHg 47%

    Morgen, 27 Juli, Donnerstag

    Zeit Temperatur Niederschläge Wind Luftdruck Luftfeuchtigkeit
    00:00 +29°C° 0 mm 5 m/S 735 mmHg 48%
    01:00 +28°C° 0 mm 5 m/S 735 mmHg 49%
    02:00 +28°C° 0 mm 5 m/S 734 mmHg 49%
    03:00 +28°C° 0 mm 4 m/S 734 mmHg 49%
    04:00 +28°C° 0 mm 4 m/S 735 mmHg 48%
    05:00 +28°C° 0 mm 4 m/S 735 mmHg 47%
    06:00 +29°C° 0 mm 4 m/S 735 mmHg 46%
    07:00 +30°C° 0 mm 4 m/S 735 mmHg 42%
    08:00 +32°C° 0 mm 4 m/S 736 mmHg 38%
    09:00 +34°C° 0 mm 4 m/S 736 mmHg 34%
    10:00 +35°C° 0 mm 4 m/S 736 mmHg 33%
    11:00 +35°C° 0 mm 5 m/S 736 mmHg 31%
    12:00 +36°C° 0 mm 5 m/S 736 mmHg 29%
    13:00 +36°C° 0 mm 5 m/S 735 mmHg 29%
    14:00 +37°C° 0 mm 5 m/S 735 mmHg 29%
    15:00 +37°C° 0 mm 5 m/S 735 mmHg 29%
    16:00 +36°C° 0 mm 5 m/S 735 mmHg 30%
    17:00 +35°C° 0 mm 5 m/S 735 mmHg 32%
    18:00 +35°C° 0 mm 5 m/S 735 mmHg 34%
    19:00 +34°C° 0 mm 4 m/S 735 mmHg 36%
    20:00 +33°C° 0 mm 3 m/S 735 mmHg 38%
    21:00 +31°C° 0 mm 3 m/S 735 mmHg 39%
    22:00 +31°C° 0 mm 2 m/S 735 mmHg 41%
    23:00 +30°C° 0 mm 2 m/S 735 mmHg 42%

    übermorgen, 28 Juli, Freitag

    Zeit Temperatur Niederschläge Wind Luftdruck Luftfeuchtigkeit
    00:00 +30°C° 0 mm 1 m/S 735 mmHg 43%
    01:00 +30°C° 0 mm 1 m/S 735 mmHg 43%
    02:00 +29°C° 0 mm 1 m/S 735 mmHg 43%
    03:00 +29°C° 0 mm 1 m/S 735 mmHg 44%
    04:00 +29°C° 0 mm 1 m/S 735 mmHg 42%
    05:00 +30°C° 0 mm 1 m/S 735 mmHg 40%
    06:00 +30°C° 0 mm 1 m/S 735 mmHg 38%
    07:00 +32°C° 0 mm 2 m/S 735 mmHg 35%
    08:00 +34°C° 0 mm 2 m/S 735 mmHg 32%
    09:00 +36°C° 0 mm 2 m/S 735 mmHg 28%
    10:00 +37°C° 0 mm 3 m/S 735 mmHg 27%
    11:00 +38°C° 0 mm 4 m/S 735 mmHg 25%
    12:00 +40°C° 0 mm 5 m/S 735 mmHg 24%
    13:00 +40°C° 0 mm 5 m/S 734 mmHg 24%
    14:00 +40°C° 0 mm 6 m/S 734 mmHg 25%
    15:00 +40°C° 0 mm 6 m/S 734 mmHg 25%
    16:00 +39°C° 0 mm 6 m/S 734 mmHg 27%
    17:00 +38°C° 0 mm 6 m/S 734 mmHg 30%
    18:00 +36°C° 0 mm 6 m/S 733 mmHg 32%
    19:00 +35°C° 0 mm 5 m/S 734 mmHg 36%
    20:00 +34°C° 0 mm 5 m/S 734 mmHg 41%
    21:00 +32°C° 0 mm 4 m/S 734 mmHg 45%
    22:00 +31°C° 0 mm 3 m/S 734 mmHg 47%
    23:00 +30°C° 0 mm 3 m/S 734 mmHg 48%

    29 Juli, Samstag

    Zeit Temperatur Niederschläge Wind Luftdruck Luftfeuchtigkeit
    00:00 +30°C° 0 mm 2 m/S 734 mmHg 50%
    01:00 +30°C° 0 mm 2 m/S 734 mmHg 49%
    02:00 +30°C° 0 mm 2 m/S 734 mmHg 49%
    03:00 +29°C° 0 mm 2 m/S 734 mmHg 48%
    04:00 +30°C° 0 mm 2 m/S 734 mmHg 47%
    05:00 +30°C° 0 mm 2 m/S 734 mmHg 45%
    06:00 +30°C° 0 mm 3 m/S 734 mmHg 44%
    07:00 +33°C° 0 mm 3 m/S 734 mmHg 41%
    08:00 +34°C° 0 mm 4 m/S 734 mmHg 38%
    09:00 +35°C° 0 mm 5 m/S 735 mmHg 35%
    10:00 +37°C° 0 mm 5 m/S 734 mmHg 33%
    11:00 +39°C° 0 mm 5 m/S 734 mmHg 31%
    12:00 +40°C° 0 mm 6 m/S 734 mmHg 28%
    13:00 +40°C° 0 mm 6 m/S 734 mmHg 28%
    14:00 +41°C° 0 mm 6 m/S 734 mmHg 28%
    15:00 +41°C° 0 mm 6 m/S 733 mmHg 27%
    16:00 +40°C° 0 mm 6 m/S 734 mmHg 29%
    17:00 +39°C° 0 mm 5 m/S 734 mmHg 31%
    18:00 +37°C° 0 mm 5 m/S 734 mmHg 34%
    19:00 +36°C° 0 mm 4 m/S 734 mmHg 37%
    20:00 +35°C° 0 mm 3 m/S 735 mmHg 40%
    21:00 +34°C° 0 mm 2 m/S 735 mmHg 43%
    22:00 +33°C° 0 mm 3 m/S 735 mmHg 44%
    23:00 +33°C° 0 mm 4 m/S 735 mmHg 44%

    30 Juli, Sonntag

    Zeit Temperatur Niederschläge Wind Luftdruck Luftfeuchtigkeit
    00:00 +33°C° 0 mm 4 m/S 736 mmHg 45%
    01:00 +33°C° 0 mm 6 m/S 736 mmHg 45%
    02:00 +33°C° 0 mm 7 m/S 736 mmHg 45%
    03:00 +33°C° 0 mm 9 m/S 736 mmHg 46%
    04:00 +32°C° 0 mm 9 m/S 737 mmHg 48%
    05:00 +32°C° 0 mm 10 m/S 737 mmHg 50%
    06:00 +31°C° 0 mm 10 m/S 738 mmHg 52%
    07:00 +32°C° 0 mm 10 m/S 738 mmHg 49%
    08:00 +33°C° 0 mm 10 m/S 739 mmHg 46%
    09:00 +34°C° 0 mm 10 m/S 739 mmHg 43%
    10:00 +34°C° 0 mm 11 m/S 739 mmHg 42%
    11:00 +36°C° 0 mm 11 m/S 739 mmHg 41%
    12:00 +36°C° 0 mm 11 m/S 739 mmHg 40%
    13:00 +36°C° 0 mm 12 m/S 739 mmHg 40%
    14:00 +36°C° 0 mm 12 m/S 739 mmHg 39%
    15:00 +34°C° 0 mm 13 m/S 739 mmHg 39%
    16:00 +34°C° 0 mm 13 m/S 739 mmHg 39%
    17:00 +33°C° 0 mm 13 m/S 739 mmHg 40%
    18:00 +32°C° 0 mm 13 m/S 739 mmHg 41%
    19:00 +32°C° 0 mm 12 m/S 740 mmHg 42%
    20:00 +31°C° 0 mm 12 m/S 740 mmHg 44%
    21:00 +31°C° 0 mm 11 m/S 741 mmHg 45%
    22:00 +31°C° 0 mm 11 m/S 741 mmHg 43%
    23:00 +29°C° 0 mm 10 m/S 741 mmHg 41%

    31 Juli, Montag

    Zeit Temperatur Niederschläge Wind Luftdruck Luftfeuchtigkeit
    00:00 +29°C° 0 mm 9 m/S 741 mmHg 39%
    01:00 +29°C° 0 mm 9 m/S 741 mmHg 40%
    02:00 +29°C° 0 mm 8 m/S 741 mmHg 41%
    03:00 +29°C° 0 mm 7 m/S 741 mmHg 42%
    04:00 +29°C° 0 mm 7 m/S 741 mmHg 42%
    05:00 +29°C° 0 mm 8 m/S 742 mmHg 42%
    06:00 +29°C° 0 mm 8 m/S 742 mmHg 42%
    07:00 +31°C° 0 mm 8 m/S 742 mmHg 40%
    08:00 +32°C° 0 mm 8 m/S 743 mmHg 39%
    09:00 +32°C° 0 mm 8 m/S 743 mmHg 37%
    10:00 +33°C° 0 mm 8 m/S 743 mmHg 37%
    11:00 +33°C° 0 mm 8 m/S 742 mmHg 36%
    12:00 +34°C° 0 mm 8 m/S 742 mmHg 36%
    13:00 +34°C° 0 mm 8 m/S 742 mmHg 37%
    14:00 +34°C° 0 mm 8 m/S 742 mmHg 38%
    15:00 +34°C° 0 mm 9 m/S 742 mmHg 39%
    16:00 +33°C° 0 mm 8 m/S 742 mmHg 41%
    17:00 +32°C° 0 mm 8 m/S 742 mmHg 43%
    18:00 +31°C° 0 mm 8 m/S 742 mmHg 46%
    19:00 +31°C° 0 mm 8 m/S 742 mmHg 48%
    20:00 +29°C° 0 mm 7 m/S 742 mmHg 50%
    21:00 +28°C° 0 mm 7 m/S 743 mmHg 53%
    22:00 +28°C° 0 mm 7 m/S 743 mmHg 54%
    23:00 +28°C° 0 mm 6 m/S 742 mmHg 55%
    Mehr zeigen